CW5066 Weather Reports


time (UTC)temp
C
wind
direction
speed
KPH
gust
KPH
rain 1hr
cm
rain 24hr
cm
rain mn
cm
humidity
%
barometer
mb
20260505014517 3 203 1.6 6.4 0.00 0.03 0.03 81 1010.5
20260505013517 3 203 1.6 6.4 0.00 0.03 0.03 80 1010.5
20260505012517 3 203 1.6 6.4 0.00 0.03 0.03 80 1010.4
20260505011517 3 0.0 3.2 0.00 0.03 0.03 80 1010.6
20260505010517 4 203 3.2 14.5 0.00 0.03 0.03 78 1010.5
20260505005517 4 225 3.2 9.7 0.00 0.03 0.03 77 1010.4
20260505004517 4 203 1.6 6.4 0.00 0.03 0.03 78 1010.5
20260505003517 3 248 4.8 16.1 0.00 0.03 0.03 79 1010.6
20260505002517 3 270 8.0 14.5 0.03 0.03 0.03 79 1010.4
20260505001537 3 248 8.0 16.1 0.03 0.03 0.03 77 1010.3
20260505000517 4 248 4.8 14.5 0.03 0.03 0.03 77 1010.6
20260504235517 4 225 4.8 14.5 0.03 0.03 0.03 77 1011.3
20260504234517 4 248 4.8 12.9 0.03 0.03 0.03 78 1011.3
20260504233517 5 225 3.2 6.4 0.03 0.03 0.03 74 1011.1
20260504232517 6 225 1.6 6.4 0.00 0.00 0.00 67 1011.8
20260504231537 6 180 3.2 9.7 0.00 0.00 0.00 64 1012.2
20260504230516 6 180 3.2 11.3 0.00 0.00 0.00 62 1012.1
20260504225516 6 158 8.0 14.5 0.00 0.00 0.00 63 1011.8
20260504224517 6 158 6.4 17.7 0.00 0.00 0.00 64 1011.3
20260504223517 6 158 11.3 19.3 0.00 0.00 0.00 62 1011.4
20260504222516 6 135 9.7 22.5 0.00 0.00 0.00 57 1011.3
20260504221517 7 180 6.4 16.1 0.00 0.00 0.00 56 1012.4
20260504220517 7 180 9.7 19.3 0.00 0.00 0.00 53 1012.2
20260504215517 8 158 8.0 14.5 0.00 0.00 0.00 49 1013.0
20260504214517 9 135 11.3 20.9 0.00 0.00 0.00 39 1013.1
20260504213517 9 0 9.7 16.1 0.00 0.00 0.00 39 1013.0
20260504212536 10 0 4.8 9.7 0.00 0.00 0.00 37 1013.6
20260504211516 10 68 4.8 17.7 0.00 0.00 0.00 35 1013.3
20260504210516 11 270 3.2 9.7 0.00 0.00 0.00 34 1013.3
20260504205517 11 158 1.6 9.7 0.00 0.00 0.00 36 1013.9
20260504204516 11 0 1.6 8.0 0.00 0.00 0.00 33 1014.8
20260504203517 10 0 3.2 9.7 0.00 0.00 0.00 34 1014.4
20260504202517 10 0 3.2 9.7 0.00 0.00 0.00 34 1014.5
20260504201517 10 45 4.8 14.5 0.00 0.00 0.00 36 1014.5
20260504200516 10 68 6.4 19.3 0.00 0.00 0.00 40 1014.6
20260504195516 8 113 8.0 25.7 0.00 0.00 0.00 46 1014.3
20260504194517 8 68 9.7 19.3 0.00 0.00 0.00 50 1014.0
20260504193517 7 0 11.3 27.4 0.00 0.00 0.00 56 1013.6
20260504192516 6 90 14.5 30.6 0.00 0.00 0.00 59 1012.5
20260504191516 6 0 11.3 29.0 0.00 0.00 0.00 55 1012.4
20260504190516 6 0 12.9 29.0 0.00 0.00 0.00 53 1012.8
20260504185516 7 0 12.9 27.4 0.00 0.00 0.00 49 1013.3
20260504184516 8 0 16.1 30.6 0.00 0.00 0.00 46 1013.1
20260504183536 8 0 9.7 24.1 0.00 0.00 0.00 43 1013.8
20260504182516 9 68 16.1 29.0 0.00 0.00 0.00 44 1014.6
20260504181516 8 113 3.2 16.1 0.00 0.00 0.00 42 1014.1
20260504180516 8 90 4.8 19.3 0.00 0.00 0.00 43 1014.3
20260504175516 8 0 8.0 19.3 0.00 0.00 0.00 43 1014.3
20260504174516 8 23 4.8 19.3 0.00 0.00 0.00 43 1014.3
20260504173516 8 0 1.6 6.4 0.00 0.00 0.00 42 1014.4
20260504172516 8 45 3.2 8.0 0.00 0.00 0.00 43 1014.6
20260504171516 8 68 6.4 16.1 0.00 0.00 0.00 41 1014.7
20260504170516 8 68 4.8 14.5 0.00 0.00 0.00 42 1014.7
20260504150516 6 0 4.8 11.3 0.00 0.00 0.00 46 1014.4
20260504140515 5 270 1.6 4.8 0.00 0.00 0.00 40 1014.6
20260504130517 5 0 4.8 12.9 0.00 0.00 0.00 37 1015.9
20260504110517 5 0.0 1.6 0.00 0.00 0.00 32 1016.2
20260504100517 5 0.0 0.0 0.00 0.00 0.00 33 1015.8
20260504081515 6 68 8.0 12.9 0.00 0.00 0.00 30 1017.2
20260504080515 6 68 6.4 12.9 0.00 0.00 0.00 31 1017.4
20260504050515 5 270 1.6 3.2 0.00 0.00 0.00 42 1017.5
20260504045536 6 0.0 1.6 0.00 0.00 0.00 42 1017.6
20260504044515 6 270 3.2 4.8 0.00 0.00 0.00 42 1017.6
20260504043516 6 270 4.8 6.4 0.00 0.00 0.00 42 1017.8
20260504042515 6 270 4.8 6.4 0.00 0.00 0.00 42 1017.2
20260504041515 6 270 4.8 6.4 0.00 0.00 0.00 42 1017.3
20260504040515 6 248 4.8 11.3 0.00 0.00 0.00 43 1017.3
20260504035535 6 203 4.8 8.0 0.00 0.00 0.00 43 1017.4
20260504034515 6 203 1.6 4.8 0.00 0.00 0.00 42 1017.4
20260504033515 6 203 3.2 6.4 0.00 0.00 0.00 45 1017.5
20260504032515 6 0.0 3.2 0.00 0.00 0.00 44 1015.7
20260504031517 6 270 3.2 4.8 0.00 0.00 0.00 46 1016.3
20260504030517 6 293 1.6 4.8 0.00 0.00 0.00 46 1016.3
20260504025517 6 0 4.8 12.9 0.00 0.00 0.00 47 1015.7
20260504024517 6 0 4.8 12.9 0.00 0.00 0.00 47 1015.5
20260504023517 6 0 4.8 9.7 0.00 0.00 0.00 47 1015.6
20260504022517 6 0 8.0 14.5 0.00 0.00 0.00 46 1015.5
20260504021537 6 0 4.8 9.7 0.00 0.00 0.00 46 1015.2
20260504020517 6 0 6.4 16.1 0.00 0.00 0.00 46 1015.2
20260504015517 6 0 11.3 24.1 0.00 0.00 0.00 47 1015.4